| time (UTC) | temp C | wind direction | speed KPH | gust KPH | rain 1hr cm | rain 24hr cm | rain mn cm | humidity % | barometer mb |
| 20260904181610 | 26 | 242 | 3.2 | 6.4 | 0.00 | 0.00 | 0.00 | 43 | 1011.8 |
| 20260904180610 | 26 | 239 | 3.2 | 6.4 | 0.00 | 0.00 | 0.00 | 42 | 1011.8 |
| 20260904175611 | 27 | 243 | 3.2 | 6.4 | 0.00 | 0.00 | 0.00 | 41 | 1011.6 |
| 20260904174610 | 27 | 222 | 6.4 | 6.4 | 0.00 | 0.00 | 0.00 | 41 | 1011.6 |
| 20260904174110 | 27 | 241 | 3.2 | 6.4 | 0.00 | 0.00 | 0.00 | 40 | 1011.5 |
| 20260904173609 | 28 | 238 | 1.6 | 8.0 | 0.00 | 0.00 | 0.00 | 40 | 1011.4 |
| 20260904173110 | 28 | 252 | 4.8 | 8.0 | 0.00 | 0.00 | 0.00 | 39 | 1011.5 |
| 20260904172609 | 28 | 232 | 3.2 | 6.4 | 0.00 | 0.00 | 0.00 | 39 | 1011.5 |
| 20260904172110 | 28 | 241 | 1.6 | 6.4 | 0.00 | 0.00 | 0.00 | 39 | 1011.4 |
| 20260904171610 | 29 | 230 | 3.2 | 6.4 | 0.00 | 0.00 | 0.00 | 38 | 1011.5 |
| 20260904171110 | 29 | 229 | 3.2 | 11.3 | 0.00 | 0.00 | 0.00 | 37 | 1011.5 |
| 20260904170612 | 30 | 243 | 3.2 | 14.5 | 0.00 | 0.00 | 0.00 | 37 | 1011.7 |
| 20260904170110 | 30 | 239 | 6.4 | 14.5 | 0.00 | 0.00 | 0.00 | 36 | 1011.7 |
| 20260904165110 | 30 | 227 | 4.8 | 12.9 | 0.00 | 0.00 | 0.00 | 36 | 1011.9 |
| 20260904164611 | 30 | 276 | 1.6 | 12.9 | 0.00 | 0.00 | 0.00 | 35 | 1011.7 |
| 20260904164110 | 30 | 230 | 6.4 | 17.7 | 0.00 | 0.00 | 0.00 | 35 | 1012.0 |
| 20260904163610 | 31 | 329 | 0.0 | 20.9 | 0.00 | 0.00 | 0.00 | 35 | 1011.7 |
| 20260904162609 | 31 | 264 | 0.0 | 20.9 | 0.00 | 0.00 | 0.00 | 35 | 1012.1 |
| 20260904161610 | 31 | 228 | 14.5 | 20.9 | 0.00 | 0.00 | 0.00 | 35 | 1012.3 |
| 20260904160611 | 31 | 246 | 8.0 | 22.5 | 0.00 | 0.00 | 0.00 | 35 | 1012.1 |
| 20260904160110 | 31 | 243 | 14.5 | 27.4 | 0.00 | 0.00 | 0.00 | 35 | 1012.3 |
| 20260904155610 | 31 | 276 | 8.0 | 27.4 | 0.00 | 0.00 | 0.00 | 35 | 1012.4 |
| 20260904155110 | 31 | 228 | 9.7 | 25.7 | 0.00 | 0.00 | 0.00 | 35 | 1012.5 |
| 20260904154610 | 31 | 265 | 4.8 | 27.4 | 0.00 | 0.00 | 0.00 | 36 | 1012.4 |
| 20260904154110 | 31 | 223 | 11.3 | 27.4 | 0.00 | 0.00 | 0.00 | 35 | 1012.4 |
| 20260904153110 | 31 | 237 | 9.7 | 33.8 | 0.00 | 0.00 | 0.00 | 35 | 1012.6 |
| 20260904152611 | 31 | 240 | 6.4 | 33.8 | 0.00 | 0.00 | 0.00 | 35 | 1012.7 |
| 20260904151609 | 31 | 234 | 9.7 | 14.5 | 0.00 | 0.00 | 0.00 | 36 | 1013.1 |
| 20260904151110 | 31 | 348 | 1.6 | 20.9 | 0.00 | 0.00 | 0.00 | 37 | 1013.2 |
| 20260904145610 | 31 | 229 | 9.7 | 17.7 | 0.00 | 0.00 | 0.00 | 36 | 1013.5 |
| 20260904144622 | 31 | 223 | 9.7 | 17.7 | 0.00 | 0.00 | 0.00 | 37 | 1013.4 |
| 20260904144110 | 31 | 247 | 3.2 | 22.5 | 0.00 | 0.00 | 0.00 | 36 | 1013.7 |
| 20260904143611 | 31 | 251 | 12.9 | 25.7 | 0.00 | 0.00 | 0.00 | 36 | 1013.4 |
| 20260904143110 | 31 | 231 | 14.5 | 25.7 | 0.00 | 0.00 | 0.00 | 36 | 1013.4 |
| 20260904141610 | 31 | 216 | 12.9 | 22.5 | 0.00 | 0.00 | 0.00 | 37 | 1013.5 |
| 20260904141110 | 31 | 277 | 4.8 | 22.5 | 0.00 | 0.00 | 0.00 | 36 | 1013.7 |
| 20260904140111 | 32 | 12 | 4.8 | 19.3 | 0.00 | 0.00 | 0.00 | 35 | 1013.8 |
| 20260904135110 | 32 | 323 | 8.0 | 16.1 | 0.00 | 0.00 | 0.00 | 34 | 1013.9 |
| 20260904134610 | 32 | 223 | 6.4 | 14.5 | 0.00 | 0.00 | 0.00 | 34 | 1013.9 |
| 20260904134127 | 32 | 268 | 3.2 | 14.5 | 0.00 | 0.00 | 0.00 | 35 | 1014.1 |
| 20260904133610 | 32 | 236 | 4.8 | 9.7 | 0.00 | 0.00 | 0.00 | 35 | 1014.1 |
| 20260904133110 | 32 | 248 | 4.8 | 14.5 | 0.00 | 0.00 | 0.00 | 36 | 1014.3 |
| 20260904132610 | 31 | 262 | 1.6 | 14.5 | 0.00 | 0.00 | 0.00 | 37 | 1014.3 |
| 20260904132110 | 31 | 229 | 6.4 | 14.5 | 0.00 | 0.00 | 0.00 | 37 | 1014.3 |
| 20260904130609 | 32 | 202 | 3.2 | 14.5 | 0.00 | 0.00 | 0.00 | 35 | 1014.5 |
| 20260904130112 | 32 | 354 | 3.2 | 14.5 | 0.00 | 0.00 | 0.00 | 36 | 1014.7 |
| 20260904125610 | 32 | 242 | 8.0 | 14.5 | 0.00 | 0.00 | 0.00 | 36 | 1014.7 |
| 20260904125110 | 32 | 227 | 3.2 | 16.1 | 0.00 | 0.00 | 0.00 | 36 | 1014.6 |
| 20260904124610 | 32 | 234 | 1.6 | 16.1 | 0.00 | 0.00 | 0.00 | 37 | 1014.8 |
| 20260904124112 | 32 | 273 | 6.4 | 12.9 | 0.00 | 0.00 | 0.00 | 37 | 1014.9 |
| 20260904123610 | 31 | 233 | 6.4 | 12.9 | 0.00 | 0.00 | 0.00 | 38 | 1015.1 |
| 20260904122610 | 32 | 214 | 3.2 | 17.7 | 0.00 | 0.00 | 0.00 | 37 | 1014.8 |
| 20260904122111 | 31 | 243 | 3.2 | 16.1 | 0.00 | 0.00 | 0.00 | 37 | 1014.9 |
| 20260904121610 | 31 | 308 | 3.2 | 16.1 | 0.00 | 0.00 | 0.00 | 39 | 1015.4 |
| 20260904121110 | 31 | 347 | 9.7 | 12.9 | 0.00 | 0.00 | 0.00 | 38 | 1015.3 |
| 20260904120610 | 31 | 250 | 4.8 | 12.9 | 0.00 | 0.00 | 0.00 | 38 | 1015.6 |
| 20260904120111 | 31 | 240 | 6.4 | 14.5 | 0.00 | 0.00 | 0.00 | 38 | 1015.5 |
| 20260904115610 | 31 | 224 | 4.8 | 17.7 | 0.00 | 0.00 | 0.00 | 40 | 1015.5 |
| 20260904115109 | 31 | 208 | 4.8 | 20.9 | 0.00 | 0.00 | 0.00 | 38 | 1015.8 |
| 20260904114610 | 31 | 267 | 6.4 | 20.9 | 0.00 | 0.00 | 0.00 | 38 | 1015.8 |
| 20260904114111 | 31 | 299 | 12.9 | 25.7 | 0.00 | 0.00 | 0.00 | 39 | 1016.0 |
| 20260904112109 | 30 | 296 | 6.4 | 16.1 | 0.00 | 0.00 | 0.00 | 40 | 1016.0 |
| 20260904111609 | 31 | 279 | 6.4 | 17.7 | 0.00 | 0.00 | 0.00 | 39 | 1016.2 |
| 20260904111111 | 31 | 3 | 12.9 | 17.7 | 0.00 | 0.00 | 0.00 | 38 | 1016.1 |
| 20260904110610 | 31 | 247 | 4.8 | 17.7 | 0.00 | 0.00 | 0.00 | 39 | 1016.0 |
| 20260904110111 | 30 | 227 | 9.7 | 17.7 | 0.00 | 0.00 | 0.00 | 40 | 1016.2 |
| 20260904105610 | 30 | 235 | 3.2 | 11.3 | 0.00 | 0.00 | 0.00 | 42 | 1016.4 |
| 20260904105111 | 28 | 286 | 4.8 | 12.9 | 0.00 | 0.00 | 0.00 | 43 | 1016.6 |
| 20260904104610 | 29 | 34 | 0.0 | 12.9 | 0.00 | 0.00 | 0.00 | 44 | 1016.8 |
| 20260904104110 | 29 | 272 | 4.8 | 12.9 | 0.00 | 0.00 | 0.00 | 44 | 1016.5 |
| 20260904103610 | 28 | 231 | 11.3 | 19.3 | 0.00 | 0.00 | 0.00 | 46 | 1016.8 |
| 20260904103110 | 28 | 219 | 4.8 | 19.3 | 0.00 | 0.00 | 0.00 | 47 | 1016.8 |
| 20260904102610 | 27 | 263 | 0.0 | 17.7 | 0.00 | 0.00 | 0.00 | 49 | 1017.0 |
| 20260904102110 | 27 | 233 | 8.0 | 17.7 | 0.00 | 0.00 | 0.00 | 48 | 1017.2 |
| 20260904101610 | 27 | 234 | 3.2 | 16.1 | 0.00 | 0.00 | 0.00 | 48 | 1017.1 |
| 20260904101112 | 27 | 232 | 11.3 | 20.9 | 0.00 | 0.00 | 0.00 | 49 | 1017.3 |
| 20260904100610 | 26 | 244 | 1.6 | 20.9 | 0.00 | 0.00 | 0.00 | 50 | 1017.4 |
| 20260904100111 | 26 | 285 | 1.6 | 12.9 | 0.00 | 0.00 | 0.00 | 51 | 1017.4 |
| 20260904095611 | 26 | 232 | 6.4 | 16.1 | 0.00 | 0.00 | 0.00 | 51 | 1017.6 |
| 20260904095111 | 26 | 235 | 3.2 | 17.7 | 0.00 | 0.00 | 0.00 | 52 | 1017.5 |
| 20260904094610 | 26 | 238 | 8.0 | 17.7 | 0.00 | 0.00 | 0.00 | 52 | 1017.8 |
| 20260904094110 | 26 | 231 | 11.3 | 17.7 | 0.00 | 0.00 | 0.00 | 51 | 1017.7 |
| 20260904093610 | 26 | 243 | 6.4 | 17.7 | 0.00 | 0.00 | 0.00 | 50 | 1017.6 |
| 20260904093109 | 26 | 228 | 4.8 | 17.7 | 0.00 | 0.00 | 0.00 | 50 | 1018.1 |
| 20260904092610 | 27 | 235 | 9.7 | 14.5 | 0.00 | 0.00 | 0.00 | 50 | 1017.8 |
| 20260904091111 | 26 | 293 | 1.6 | 14.5 | 0.00 | 0.00 | 0.00 | 50 | 1018.3 |
| 20260904090610 | 27 | 238 | 3.2 | 16.1 | 0.00 | 0.00 | 0.00 | 49 | 1018.2 |
| 20260904090123 | 27 | 225 | 8.0 | 16.1 | 0.00 | 0.00 | 0.00 | 49 | 1018.2 |
| 20260904085610 | 27 | 266 | 1.6 | 19.3 | 0.00 | 0.00 | 0.00 | 49 | 1018.2 |
| 20260904085111 | 27 | 237 | 3.2 | 19.3 | 0.00 | 0.00 | 0.00 | 49 | 1018.2 |
| 20260904084610 | 27 | 250 | 6.4 | 17.7 | 0.00 | 0.00 | 0.00 | 49 | 1018.5 |
| 20260904084112 | 27 | 245 | 4.8 | 14.5 | 0.00 | 0.00 | 0.00 | 49 | 1018.5 |
| 20260904083611 | 27 | 228 | 9.7 | 12.9 | 0.00 | 0.00 | 0.00 | 49 | 1018.6 |
| 20260904082609 | 27 | 298 | 0.0 | 12.9 | 0.00 | 0.00 | 0.00 | 50 | 1018.5 |
| 20260904082110 | 27 | 213 | 3.2 | 6.4 | 0.00 | 0.00 | 0.00 | 48 | 1018.8 |
| 20260904081610 | 27 | 348 | 3.2 | 9.7 | 0.00 | 0.00 | 0.00 | 50 | 1018.6 |
| 20260904081125 | 25 | 315 | 0.0 | 9.7 | 0.00 | 0.00 | 0.00 | 52 | 1018.7 |
| 20260904080610 | 25 | 236 | 3.2 | 12.9 | 0.00 | 0.00 | 0.00 | 53 | 1018.6 |
| 20260904075610 | 25 | 219 | 6.4 | 16.1 | 0.00 | 0.00 | 0.00 | 52 | 1018.6 |
| 20260904074611 | 26 | 239 | 3.2 | 9.7 | 0.00 | 0.00 | 0.00 | 50 | 1018.9 |
| 20260904074111 | 25 | 200 | 3.2 | 9.7 | 0.00 | 0.00 | 0.00 | 52 | 1018.9 |
| 20260904073611 | 25 | 237 | 4.8 | 11.3 | 0.00 | 0.00 | 0.00 | 52 | 1018.7 |
| 20260904073110 | 24 | 287 | 0.0 | 12.9 | 0.00 | 0.00 | 0.00 | 55 | 1018.8 |
| 20260904072611 | 24 | 221 | 11.3 | 16.1 | 0.00 | 0.00 | 0.00 | 55 | 1018.6 |
| 20260904071610 | 23 | 246 | 1.6 | 14.5 | 0.00 | 0.00 | 0.00 | 57 | 1018.8 |
| 20260904070610 | 22 | 199 | 4.8 | 14.5 | 0.00 | 0.00 | 0.00 | 59 | 1018.6 |
| 20260904070111 | 22 | 192 | 6.4 | 14.5 | 0.00 | 0.00 | 0.00 | 60 | 1018.8 |
| 20260904065610 | 22 | 229 | 6.4 | 14.5 | 0.00 | 0.00 | 0.00 | 61 | 1018.9 |
| 20260904065112 | 22 | 234 | 6.4 | 14.5 | 0.00 | 0.00 | 0.00 | 62 | 1018.9 |
| 20260904064611 | 21 | 212 | 6.4 | 14.5 | 0.00 | 0.00 | 0.00 | 63 | 1019.1 |
| 20260904064111 | 21 | 229 | 11.3 | 14.5 | 0.00 | 0.00 | 0.00 | 63 | 1018.9 |
| 20260904063611 | 21 | 355 | 3.2 | 11.3 | 0.00 | 0.00 | 0.00 | 64 | 1018.7 |
| 20260904063110 | 21 | 236 | 3.2 | 11.3 | 0.00 | 0.00 | 0.00 | 64 | 1018.9 |
| 20260904062110 | 21 | 250 | 4.8 | 9.7 | 0.00 | 0.00 | 0.00 | 64 | 1018.8 |
| 20260904061610 | 21 | 237 | 3.2 | 9.7 | 0.00 | 0.00 | 0.00 | 64 | 1018.8 |
| 20260904061110 | 21 | 257 | 3.2 | 9.7 | 0.00 | 0.00 | 0.00 | 64 | 1018.6 |
| 20260904060610 | 21 | 177 | 3.2 | 9.7 | 0.00 | 0.00 | 0.00 | 65 | 1018.7 |
| 20260904060110 | 21 | 226 | 4.8 | 9.7 | 0.00 | 0.00 | 0.00 | 65 | 1018.8 |
| 20260904055612 | 20 | 244 | 0.0 | 12.9 | 0.00 | 0.00 | 0.00 | 66 | 1018.8 |
| 20260904055110 | 20 | 203 | 3.2 | 12.9 | 0.00 | 0.00 | 0.00 | 67 | 1018.7 |
| 20260904054610 | 20 | 231 | 8.0 | 11.3 | 0.00 | 0.00 | 0.00 | 67 | 1018.7 |
| 20260904054110 | 20 | 239 | 6.4 | 11.3 | 0.00 | 0.00 | 0.00 | 68 | 1018.9 |
| 20260904053110 | 19 | 204 | 1.6 | 9.7 | 0.00 | 0.00 | 0.00 | 69 | 1018.7 |
| 20260904052611 | 18 | 250 | 0.0 | 9.7 | 0.00 | 0.00 | 0.00 | 71 | 1018.7 |
| 20260904052110 | 18 | 213 | 3.2 | 6.4 | 0.00 | 0.00 | 0.00 | 73 | 1018.8 |
| 20260904051611 | 18 | 281 | 0.0 | 9.7 | 0.00 | 0.00 | 0.00 | 73 | 1018.8 |
| 20260904051111 | 18 | 206 | 1.6 | 9.7 | 0.00 | 0.00 | 0.00 | 74 | 1018.5 |
| 20260904050610 | 18 | 216 | 3.2 | 8.0 | 0.00 | 0.00 | 0.00 | 75 | 1018.5 |
| 20260904050111 | 18 | 172 | 1.6 | 6.4 | 0.00 | 0.00 | 0.00 | 75 | 1018.9 |
| 20260904045611 | 18 | 223 | 3.2 | 6.4 | 0.00 | 0.00 | 0.00 | 75 | 1018.5 |
| 20260904045111 | 17 | 214 | 3.2 | 8.0 | 0.00 | 0.00 | 0.00 | 76 | 1018.5 |
| 20260904044611 | 17 | 230 | 4.8 | 8.0 | 0.00 | 0.00 | 0.00 | 76 | 1018.5 |
| 20260904044110 | 17 | 203 | 0.0 | 8.0 | 0.00 | 0.00 | 0.00 | 77 | 1018.5 |
| 20260904043610 | 17 | 195 | 0.0 | 6.4 | 0.00 | 0.00 | 0.00 | 78 | 1018.6 |
| 20260904043110 | 17 | 233 | 3.2 | 6.4 | 0.00 | 0.00 | 0.00 | 78 | 1018.7 |
| 20260904042610 | 17 | 220 | 3.2 | 6.4 | 0.00 | 0.00 | 0.00 | 78 | 1018.9 |
| 20260904041610 | 17 | 75 | 1.6 | 6.4 | 0.00 | 0.00 | 0.00 | 78 | 1018.7 |
| 20260904040623 | 17 | 255 | 3.2 | 6.4 | 0.00 | 0.00 | 0.00 | 78 | 1018.6 |
| 20260904040110 | 17 | 177 | 1.6 | 6.4 | 0.00 | 0.00 | 0.00 | 77 | 1018.6 |
| 20260904035610 | 17 | 127 | 0.0 | 4.8 | 0.00 | 0.00 | 0.00 | 77 | 1018.7 |
| 20260904035111 | 17 | 185 | 3.2 | 4.8 | 0.00 | 0.00 | 0.00 | 76 | 1018.7 |
| 20260904034610 | 17 | 161 | 3.2 | 4.8 | 0.00 | 0.00 | 0.00 | 76 | 1018.8 |
| 20260904034110 | 17 | 181 | 1.6 | 4.8 | 0.00 | 0.00 | 0.00 | 76 | 1018.3 |
| 20260904033610 | 18 | 243 | 3.2 | 3.2 | 0.00 | 0.00 | 0.00 | 76 | 1018.9 |
| 20260904033110 | 18 | 185 | 1.6 | 4.8 | 0.00 | 0.00 | 0.00 | 75 | 1018.7 |
| 20260904032610 | 18 | 128 | 0.0 | 4.8 | 0.00 | 0.00 | 0.00 | 75 | 1018.7 |
| 20260904032109 | 18 | 198 | 1.6 | 4.8 | 0.00 | 0.00 | 0.00 | 75 | 1018.8 |
| 20260904031610 | 18 | 152 | 0.0 | 4.8 | 0.00 | 0.00 | 0.00 | 75 | 1018.7 |
| 20260904031110 | 18 | 37 | 0.0 | 4.8 | 0.00 | 0.00 | 0.00 | 74 | 1018.5 |
| 20260904030610 | 18 | 237 | 1.6 | 4.8 | 0.00 | 0.00 | 0.00 | 74 | 1018.6 |
| 20260904030111 | 18 | 180 | 1.6 | 6.4 | 0.00 | 0.00 | 0.00 | 74 | 1018.6 |
| 20260904025610 | 18 | 179 | 1.6 | 8.0 | 0.00 | 0.00 | 0.00 | 74 | 1018.7 |
| 20260904025110 | 18 | 237 | 3.2 | 8.0 | 0.00 | 0.00 | 0.00 | 74 | 1018.5 |
| 20260904024610 | 18 | 160 | 3.2 | 8.0 | 0.00 | 0.00 | 0.00 | 74 | 1018.8 |
| 20260904024110 | 18 | 228 | 3.2 | 6.4 | 0.00 | 0.00 | 0.00 | 74 | 1018.6 |
| 20260904023610 | 18 | 209 | 3.2 | 4.8 | 0.00 | 0.00 | 0.00 | 74 | 1018.6 |
| 20260904023110 | 18 | 312 | 1.6 | 4.8 | 0.00 | 0.00 | 0.00 | 74 | 1018.5 |
| 20260904022610 | 18 | 233 | 0.0 | 6.4 | 0.00 | 0.00 | 0.00 | 74 | 1018.3 |
| 20260904022110 | 18 | 231 | 3.2 | 6.4 | 0.00 | 0.00 | 0.00 | 74 | 1018.6 |
| 20260904021612 | 18 | 230 | 4.8 | 8.0 | 0.00 | 0.00 | 0.00 | 74 | 1018.4 |
| 20260904021109 | 18 | 232 | 3.2 | 8.0 | 0.00 | 0.00 | 0.00 | 74 | 1018.2 |
| 20260904020114 | 18 | 145 | 0.0 | 8.0 | 0.00 | 0.00 | 0.00 | 74 | 1018.2 |
| 20260904015610 | 18 | 207 | 3.2 | 8.0 | 0.00 | 0.00 | 0.00 | 74 | 1018.5 |
| 20260904015110 | 18 | 228 | 3.2 | 6.4 | 0.00 | 0.00 | 0.00 | 73 | 1018.6 |
| 20260904014612 | 18 | 195 | 0.0 | 6.4 | 0.00 | 0.00 | 0.00 | 73 | 1018.6 |
| 20260904014110 | 18 | 207 | 1.6 | 6.4 | 0.00 | 0.00 | 0.00 | 72 | 1018.5 |
| 20260904013610 | 18 | 225 | 3.2 | 6.4 | 0.00 | 0.00 | 0.00 | 72 | 1018.4 |
| 20260904012610 | 18 | 240 | 0.0 | 4.8 | 0.00 | 0.00 | 0.00 | 72 | 1018.7 |
| 20260904012109 | 18 | 272 | 1.6 | 6.4 | 0.00 | 0.00 | 0.00 | 71 | 1018.5 |
| 20260904011609 | 18 | 217 | 3.2 | 6.4 | 0.00 | 0.00 | 0.00 | 71 | 1018.7 |
| 20260904011111 | 18 | 250 | 6.4 | 6.4 | 0.00 | 0.00 | 0.00 | 72 | 1018.9 |
| 20260904010611 | 18 | 212 | 3.2 | 4.8 | 0.00 | 0.00 | 0.00 | 72 | 1019.1 |
| 20260904010114 | 18 | 146 | 0.0 | 4.8 | 0.00 | 0.00 | 0.00 | 72 | 1019.0 |
| 20260904005610 | 18 | 205 | 1.6 | 8.0 | 0.00 | 0.00 | 0.00 | 72 | 1018.8 |
| 20260904005110 | 18 | 190 | 1.6 | 8.0 | 0.00 | 0.00 | 0.00 | 72 | 1018.9 |
| 20260904004610 | 18 | 175 | 1.6 | 6.4 | 0.00 | 0.00 | 0.00 | 72 | 1018.9 |
| 20260904004110 | 18 | 213 | 3.2 | 4.8 | 0.00 | 0.00 | 0.00 | 71 | 1019.0 |
| 20260904003610 | 18 | 203 | 3.2 | 4.8 | 0.00 | 0.00 | 0.00 | 71 | 1019.1 |
| 20260904003110 | 18 | 181 | 3.2 | 6.4 | 0.00 | 0.00 | 0.00 | 71 | 1019.1 |
| 20260904002610 | 18 | 217 | 3.2 | 6.4 | 0.00 | 0.00 | 0.00 | 71 | 1019.2 |
| 20260904002111 | 18 | 207 | 1.6 | 6.4 | 0.00 | 0.00 | 0.00 | 71 | 1019.1 |
| 20260904001110 | 18 | 242 | 3.2 | 8.0 | 0.00 | 0.00 | 0.00 | 70 | 1019.3 |
| 20260904000611 | 18 | 259 | 3.2 | 8.0 | 0.00 | 0.00 | 0.00 | 70 | 1019.2 |
| 20260904000114 | 18 | 142 | 3.2 | 4.8 | 0.00 | 0.00 | 0.00 | 69 | 1019.3 |
| 20260903235609 | 18 | 203 | 0.0 | 6.4 | 0.00 | 0.00 | 0.00 | 69 | 1019.2 |
| 20260903235110 | 18 | 167 | 1.6 | 6.4 | 0.00 | 0.00 | 0.00 | 68 | 1019.2 |
| 20260903233111 | 19 | 286 | 0.0 | 3.2 | 0.00 | 0.00 | 0.00 | 68 | 1019.4 |
| 20260903232610 | 19 | 225 | 0.0 | 3.2 | 0.00 | 0.00 | 0.00 | 67 | 1019.3 |
| 20260903232110 | 19 | 44 | 0.0 | 3.2 | 0.00 | 0.00 | 0.00 | 66 | 1019.6 |
| 20260903231610 | 20 | 205 | 0.0 | 4.8 | 0.00 | 0.00 | 0.00 | 66 | 1019.4 |
| 20260903231111 | 20 | 206 | 3.2 | 6.4 | 0.00 | 0.00 | 0.00 | 66 | 1019.6 |
| 20260903230610 | 20 | 230 | 0.0 | 8.0 | 0.00 | 0.00 | 0.00 | 66 | 1019.6 |
| 20260903230122 | 20 | 224 | 0.0 | 8.0 | 0.00 | 0.00 | 0.00 | 66 | 1019.6 |
| 20260903225611 | 19 | 243 | 1.6 | 8.0 | 0.00 | 0.00 | 0.00 | 66 | 1019.6 |
| 20260903225110 | 19 | 256 | 1.6 | 6.4 | 0.00 | 0.00 | 0.00 | 67 | 1019.7 |
| 20260903224610 | 19 | 232 | 3.2 | 4.8 | 0.00 | 0.00 | 0.00 | 67 | 1019.6 |
| 20260903223610 | 19 | 229 | 3.2 | 3.2 | 0.00 | 0.00 | 0.00 | 67 | 1019.7 |
| 20260903223111 | 19 | 243 | 3.2 | 3.2 | 0.00 | 0.00 | 0.00 | 67 | 1019.4 |
| 20260903222609 | 19 | 230 | 0.0 | 3.2 | 0.00 | 0.00 | 0.00 | 67 | 1019.7 |
| 20260903222110 | 19 | 224 | 0.0 | 3.2 | 0.00 | 0.00 | 0.00 | 66 | 1019.6 |
| 20260903221609 | 19 | 255 | 0.0 | 1.6 | 0.00 | 0.00 | 0.00 | 66 | 1019.5 |
| 20260903221110 | 19 | 29 | 0.0 | 1.6 | 0.00 | 0.00 | 0.00 | 66 | 1019.7 |
| 20260903220610 | 19 | 242 | 0.0 | 3.2 | 0.00 | 0.00 | 0.00 | 65 | 1019.5 |
| 20260903220115 | 19 | 290 | 0.0 | 3.2 | 0.00 | 0.00 | 0.00 | 65 | 1019.7 |
| 20260903215610 | 19 | 301 | 0.0 | 1.6 | 0.00 | 0.00 | 0.00 | 64 | 1019.5 |
| 20260903214610 | 20 | 205 | 0.0 | 6.4 | 0.00 | 0.00 | 0.00 | 63 | 1019.8 |
| 20260903214110 | 20 | 122 | 0.0 | 8.0 | 0.00 | 0.00 | 0.00 | 62 | 1019.7 |
| 20260903213612 | 20 | 330 | 0.0 | 8.0 | 0.00 | 0.00 | 0.00 | 62 | 1019.8 |
| 20260903213111 | 20 | 334 | 1.6 | 6.4 | 0.00 | 0.00 | 0.00 | 62 | 1020.0 |
| 20260903212611 | 20 | 25 | 0.0 | 1.6 | 0.00 | 0.00 | 0.00 | 62 | 1019.9 |
| 20260903211610 | 20 | 299 | 0.0 | 4.8 | 0.00 | 0.00 | 0.00 | 61 | 1019.7 |
| 20260903211110 | 20 | 357 | 3.2 | 9.7 | 0.00 | 0.00 | 0.00 | 61 | 1019.5 |
| 20260903210610 | 21 | 0 | 6.4 | 9.7 | 0.00 | 0.00 | 0.00 | 61 | 1019.7 |
| 20260903210111 | 21 | 5 | 3.2 | 8.0 | 0.00 | 0.00 | 0.00 | 61 | 1020.0 |
| 20260903205123 | 21 | 296 | 4.8 | 8.0 | 0.00 | 0.00 | 0.00 | 60 | 1019.8 |
| 20260903204610 | 21 | 241 | 3.2 | 9.7 | 0.00 | 0.00 | 0.00 | 59 | 1019.9 |
| 20260903204110 | 21 | 332 | 3.2 | 11.3 | 0.00 | 0.00 | 0.00 | 59 | 1019.9 |
| 20260903203610 | 21 | 10 | 0.0 | 11.3 | 0.00 | 0.00 | 0.00 | 58 | 1019.8 |
| 20260903203111 | 21 | 30 | 4.8 | 9.7 | 0.00 | 0.00 | 0.00 | 58 | 1019.9 |
| 20260903202610 | 21 | 220 | 3.2 | 9.7 | 0.00 | 0.00 | 0.00 | 57 | 1019.7 |
| 20260903202110 | 21 | 324 | 3.2 | 9.7 | 0.00 | 0.00 | 0.00 | 56 | 1019.7 |
| 20260903201610 | 21 | 292 | 3.2 | 9.7 | 0.00 | 0.00 | 0.00 | 56 | 1019.8 |
| 20260903201110 | 21 | 269 | 3.2 | 9.7 | 0.00 | 0.00 | 0.00 | 55 | 1019.5 |
| 20260903200622 | 21 | 30 | 1.6 | 9.7 | 0.00 | 0.00 | 0.00 | 54 | 1019.7 |
| 20260903200116 | 22 | 355 | 4.8 | 9.7 | 0.00 | 0.00 | 0.00 | 53 | 1019.8 |
| 20260903195611 | 22 | 290 | 4.8 | 8.0 | 0.00 | 0.00 | 0.00 | 53 | 1019.6 |
| 20260903195111 | 22 | 20 | 0.0 | 6.4 | 0.00 | 0.00 | 0.00 | 52 | 1019.4 |
| 20260903194612 | 22 | 30 | 0.0 | 6.4 | 0.00 | 0.00 | 0.00 | 52 | 1019.2 |
| 20260903193110 | 22 | 249 | 0.0 | 4.8 | 0.00 | 0.00 | 0.00 | 52 | 1019.5 |
| 20260903192610 | 22 | 15 | 0.0 | 4.8 | 0.00 | 0.00 | 0.00 | 52 | 1019.2 |
| 20260903191110 | 22 | 0 | 0.0 | 1.6 | 0.00 | 0.00 | 0.00 | 51 | 1019.2 |
| 20260903190610 | 22 | 343 | 0.0 | 3.2 | 0.00 | 0.00 | 0.00 | 51 | 1019.2 |
| 20260903190110 | 22 | 308 | 1.6 | 3.2 | 0.00 | 0.00 | 0.00 | 50 | 1019.0 |
| 20260903185610 | 22 | 15 | 0.0 | 4.8 | 0.00 | 0.00 | 0.00 | 50 | 1018.8 |
| 20260903185111 | 22 | 269 | 0.0 | 4.8 | 0.00 | 0.00 | 0.00 | 50 | 1018.9 |
| 20260903184610 | 22 | 0 | 0.0 | 3.2 | 0.00 | 0.00 | 0.00 | 50 | 1018.7 |
| 20260903184110 | 22 | 258 | 1.6 | 4.8 | 0.00 | 0.00 | 0.00 | 49 | 1019.1 |
| 20260903183610 | 22 | 21 | 0.0 | 4.8 | 0.00 | 0.00 | 0.00 | 49 | 1018.8 |
| 20260903183110 | 23 | 9 | 0.0 | 8.0 | 0.00 | 0.00 | 0.00 | 49 | 1018.9 |
| 20260903182610 | 23 | 3 | 1.6 | 8.0 | 0.00 | 0.00 | 0.00 | 48 | 1018.8 |
| 20260903182110 | 23 | 294 | 1.6 | 11.3 | 0.00 | 0.00 | 0.00 | 48 | 1018.7 |